sat.trackr.live / text

‹ back to catalog

QIANFAN-166

NORAD 69383 · 2026-124B

PAYLOAD ACTIVE UNKNOWN

§ Identity

Operator
Country
PRC
Launch date
2026-06-04
Launch site
TAISC
Launch vehicle
Mass (kg)
RCS (m²)

External: N2YO · Heavens-Above · Gunter

§ Orbital elements

Epoch: 2026-09-20T03:52:02.641152Z

Period
106.59 min
Inclination
89.0089°
Eccentricity
0.0001831
Mean motion
13.51022822 rev/d
Perigee alt
1,067.1 km
Apogee alt
1,069.9 km
Semi-major
7,446.6 km
B*
1.5810e-4
RAAN
352.0679°
Arg perigee
104.7308°
Mean anomaly
255.4046°
Rev number
1,486

§ Raw data

QIANFAN-1661 69383U 26124B   26263.16114168  .00000114  00000+0  15810-3 0  99942 69383  89.0089 352.0679 0001831 104.7308 255.4046 13.51022822 14864

JSON: /api/v1/satellites/69383 · /tle

For live sub-satellite position, see the globe view (requires WebGL).

§ Visibility from observer

Set your observer location to see the next 7 days of passes ≥ 10°. The values pass through the URL so the page stays shareable.

No JS? Fill the form by hand. The geolocation button needs JavaScript.